Regional Weather Roundup
Issued by NWS Charleston, SC

Current Version | Previous Version | Text Only | Print | Product List | Glossary Off
Versions: 1 2 3 4 5 6 7 8 9 10 11 12 13 14 15 16 17 18 19 20 21 22 23 24 25 26 27 28 29 30 31 32 33 34 35 36 37 38 39 40 41 42 43 44 45 46 47 48 49 50

000
ASUS42 KCHS 260128
RWRCHS

REGIONAL WEATHER ROUNDUP
NATIONAL WEATHER SERVICE CHARLESTON SC
900 PM EDT THU AUG 25 2016

NOTE: "FAIR" INDICATES FEW OR NO CLOUDS BELOW 12,000 FEET WITH NO
SIGNIFICANT WEATHER AND/OR OBSTRUCTIONS TO VISIBILITY.

NOT ALL STATIONS ARE QUALITY CONTROLLED. USE DATA WITH CAUTION...
ESPECIALLY DEWPOINT OBSERVATIONS.

SCZ027-030-031-034>040-042>050-260200-
...SOUTHEAST SOUTH CAROLINA...

CITY           SKY/WX    TMP DP  RH WIND       PRES   REMARKS
N CHARLESTON   CLEAR     79  71  76 SE7       30.08R
WATERFRONT PRK   N/A     83  74  74 E8        30.06S HX  90
MOUNT PLEASANT FAIR      75  73  94 CALM      30.08S
JOHNS ISLAND   FAIR      79  73  83 CALM      30.09R
PINOPOLIS        N/A     81  72  74 CALM      30.01R
MONCKS CORNER  FAIR      77  70  78 CALM      30.08S
SUMMERVILLE    FAIR      79  72  78 CALM      30.09S
BEAUFORT MCAS  CLEAR     81  73  76 SE3       30.08S
BEAUFORT ARPT  FAIR      79  72  78 CALM      30.08R
HILTON HEAD IS CLEAR     81  73  78 CALM      30.08S
WALTERBORO     CLEAR     81  70  69 SE5       30.09R
ALLENDALE      FAIR      81  64  57 CALM      30.07R

...SOUTHERN MIDLANDS AND PEE DEE...

CITY           SKY/WX    TMP DP  RH WIND       PRES   REMARKS
GEORGETOWN     FAIR      77  70  78 CALM      30.10S
KINGSTREE      FAIR      77  70  78 CALM      30.09R
ORANGEBURG     CLEAR     81  67  62 CALM      30.07S
BARNWELL       NOT AVBL
AIKEN          FAIR      81  68  65 CALM      30.12R
MANNING        FAIR      77  70  78 CALM      30.08S
COLUMBIA       CLEAR     85  67  54 SE6       30.07R
SUMTER         CLEAR     83  69  62 S3        30.05S
FLORENCE       CLEAR     82  69  64 SE9       30.08R
MYRTLE BEACH   NOT AVBL
N MYRTLE BEACH CLEAR     81  69  67 SE5       30.08F

$$

GAZ063-065-086>088-099>101-113>116-118-119-134>141-150-260200-
...SOUTHEAST GEORGIA...

CITY           SKY/WX    TMP DP  RH WIND       PRES   REMARKS
SAVANNAH ARPT  CLEAR     82  70  66 SE9       30.08R
HUNTER AAF     CLEAR     80  75  83 E6        30.05R
FORT STEWART   CLEAR     77  70  79 CALM      30.05R
STATESBORO     CLEAR     81  70  71 CALM      30.08R
SYLVANIA       NOT AVBL
CLAXTON        FAIR      81  71  71 CALM      30.08R

...CSRA...CENTRAL AND FAR SOUTHEAST GEORGIA...

CITY           SKY/WX    TMP DP  RH WIND       PRES   REMARKS
THOMSON        MOCLDY    81  75  82 MISG      30.13R
AUGUSTA-BUSH   CLEAR     78  72  81 SE3       30.05S
AUGUSTA-DANIEL CLEAR     88  68  51 SE3       30.08R HX  91
SWAINSBORO     FAIR      81  66  61 CALM      30.08S
VIDALIA        CLEAR     81  68  65 CALM      30.08R
EASTMAN        FAIR      82  53  36 CALM      30.09R
HAZLEHURST     FAIR      84  68  58 CALM      30.06R
ALMA           CLEAR     82  69  64 SE6       30.07R
WAYCROSS         N/A     83  74  75 SE5       30.07S
JESUP          FAIR      81  73  78 CALM      30.08R
BAXLEY         FAIR      81  75  83 SE3       30.07R
BRUNSWICK      CLEAR     79  75  89 E5        30.08S
SAINT SIMONS   PTCLDY    82  73  74 E9        30.07R

$$

SCZ027-028-034-036>038-045-046-048>050-GAZ119-141-260200-
...LAKE AND SUPPLEMENTAL COASTAL OBSERVATIONS...

STATION/POSITION TIME  TEMP    WIND        PRES    WAVE   SWELL
                       AIR SEA DIR/SP/G            HT/PER HT/PER/DIR
                 (UTC) (F)     (DEG/KT/KT) (MB)    (FT/S) (FT/S/D)
WINYAH BAY       0000   81     120/  5     1018.0S
LAKE MURRAY      0000   89      80/  3/  4 1017.3R
ACE BASIN NERRS  0000   82     110/  1     1018.0S
FORT PULASKI     0100   82 86  100/  7/ 10 1018.7S
SAPELO ISLAND    0100   81      90/  6     1018.0S

$$

ANZ835-935-AMZ111-154-330-350-352-354-370-450-454-472-260200-
...C-MAN AND BUOY OBSERVATIONS...

STATION/POSITION TIME  TEMP    WIND        PRES    WAVE   SWELL
                       AIR SEA DIR/SP/G            HT/PER HT/PER/DIR
                 (UTC) (F)     (DEG/KT/KT) (MB)    (FT/S) (FT/S/D)
BUOY 41004       0050   83 84   80/ 12/ 12 1017.8S   3/ 9   3/ 90/ 9
BUOY 41008       0050   83 85   80/ 14/ 17 1017.7R   3/ 4   2/110/ 7
FOLLY BEACH CMAN 0100   82     110/  9/ 10 1018.8S
CAPERS NEARSHORE 0108   82 84  100/ 10/ 12 1018.4S
FRIPP NEARSHORE  0108   83 86  110/ 10/ 14 1017.9R


STATION/POSITION TIME  TEMP    WIND        PRES    WAVE   SWELL
                       AIR SEA DIR/SP/G            HT/PER HT/PER/DIR
                 (UTC) (F)     (DEG/KT/KT) (MB)    (FT/S) (FT/S/D)
5E ST. MARYS GA  0101      85                N/A     5/ 5
FRYING PAN BUOY  0100   82 85   90/  8/ 10 1018.5S
BUOY 41025       0050   81 84  100/  4/  6 1019.9R   3/ 9   3/ 90/ 9
CAPE LOOKOUT NC  0100   81     130/  7/  8 1019.1R
BUOY 41002       0050   82 84   60/ 12/ 14 1017.5R   4/ 7   3/ 80/ 7
BUOY 41010       NOT AVBL
ST AUGUSTINE FL  0100   81 83   40/ 14/ 16 1018.0R


$$




USA.gov is the U.S. government's official web portal to all federal, state and local government web resources and services.